Weather in Aspa

Russia / Perm Krai     56°51′29″N   56°20′08″E
temp.,
°C
wind,
m/s
gust,
m/s
humid.,
%
clouds,
%
prec.,
mm/h
press.,
hPa
HPBL,
m
28 july, wed
wed2823:00+11n367495 0.0 1013115
02:00+10n117097 0.0 101321
05:00+7nw22855 0.0 101429
08:00+11wnw35675 0.0 1013284
11:00+13wnw5857100 0.0 10141183
14:00+16nw5745100 0.1 10122098
17:00+15nw475147 0.1 10131690
20:00+14nnw266096 0.0 1013457
29 july, thu
thu2923:00+8nnw11825 0.0 101410
02:00+7wsw118684 0.0 101310
05:00+7sw228550 0.0 101317
08:00+12sw477168 0.0 1011256
11:00+19wsw59485 0.0 10101170
14:00+23w693511 0.0 10082636
17:00+23wsw694281 0.0 10072499
20:00+19sw3963100 0.0 1007321
30 july, fri
fri3023:00+15wsw3674100 0.0 100691
02:00+13w2794100 0.0 1006141
05:00+12s3119897 0.0 1005363
08:00+13s4998100 1.1 1003547
11:00+14ssw3698100 1.2 1003375
14:00+15w2696100 0.1 1003474
17:00+21w477086 0.3 10031270
20:00+19w398811 1.6 1004359
31 july, sat
sat3123:00+16wsw2292100 2.6 100417
02:00+15wsw229390 0.1 100518
05:00+14sw2293100 0.1 100627
08:00+17sw2693100 0.0 1007191
11:00+21wsw4574100 0.0 1006798
14:00+18ssw5896100 1.1 1006544
17:00+19ssw478974 1.3 1005597
20:00+20ssw38915 1.4 1004289
1 august, sun
sun123:00+17sw310976 2.1 1004238
02:00+16wsw389927 0.4 1005190
05:00+15w399814 0.4 1006181
08:00+17wsw39925 0.1 1007318
11:00+22w58647 0.4 10081094
14:00+25w61044100 0.8 10082364
17:00+25w574741 0.8 10082133
20:00+21w36665 0.0 1009141